Location: Unspecified
(0.0000°N, 0.0000°E)
Time: 20:48:11
(UTC+00:00)

Vanguard 3 - Visible Passes

Search period start: 01 December 2023 00:00
Search period end: 11 December 2023 00:00
Orbit: 507 x 3241 km, 33.3° (Epoch: 01 December)

Date Brightness Start Highest point End Pass type
(mag) Time Alt. Az. Time Alt. Az. Time Alt. Az.
01 Dec 9.4 19:30:35 10° WSW 19:49:22 75° NW 19:55:10 41° NE visible
01 Dec 10.6 21:53:06 10° W 21:59:30 20° WNW 21:59:30 20° WNW visible
02 Dec 9.9 18:09:54 10° SW 18:29:55 77° SE 18:42:48 14° ENE visible
02 Dec 9.6 20:29:04 10° WSW 20:44:57 43° NW 20:47:08 41° NNW visible
03 Dec 9.7 19:06:55 10° WSW 19:26:12 70° NW 19:34:45 29° NE visible
03 Dec 10.5 21:30:00 10° W 21:39:05 22° NW 21:39:05 22° NW visible
04 Dec 10.0 17:46:17 10° SW 18:06:31 82° SE 18:21:35 10° ENE visible
04 Dec 9.8 20:05:35 10° WSW 20:22:00 41° NW 20:26:42 33° N visible
05 Dec 7.9 05:18:05 10° NNW 05:21:23 30° NE 05:25:30 10° E visible
05 Dec 10.0 18:43:20 10° WSW 19:02:53 65° NW 19:14:18 19° NE visible
05 Dec 10.4 21:06:54 10° W 21:17:54 22° NW 21:18:38 21° NNW visible
06 Dec 10.1 19:42:11 10° W 19:58:57 39° NW 20:06:14 25° N visible
07 Dec 7.3 04:56:41 13° NNW 04:59:33 37° NE 05:03:31 10° ESE visible
07 Dec 10.2 18:19:54 10° WSW 18:39:27 61° NW 18:53:48 11° NE visible
07 Dec 10.5 20:43:48 10° WNW 20:55:15 21° NW 20:58:08 20° NNW visible
08 Dec 9.1 03:44:20 10° NE 03:44:20 10° NE 03:44:20 10° NE visible
08 Dec 10.4 19:18:53 10° W 19:35:48 37° NW 19:45:41 18° NNE visible
09 Dec 6.7 04:36:19 30° NNW 04:37:45 50° NE 04:41:36 10° ESE visible
09 Dec 10.4 17:56:36 10° WSW 18:15:56 57° NW 18:31:32 10° NE visible
09 Dec 10.5 20:20:45 10° WNW 20:32:33 21° NNW 20:37:33 17° N visible
10 Dec 10.6 18:55:43 10° W 19:12:36 35° NW 19:25:03 12° NNE visible
10 Dec 11.0 21:27:28 10° NW 21:29:22 11° NNW 21:29:22 11° NNW visible
